NOAA 16 DEB, 41046

Orbit data source: Space-Track

NOAA 16 DEB, 41046 is space debris in SSO originally from a launch on Thu, 21 Sep 2000 UTC launched from the Air Force Western Test Range (AFWTR). Debris objects in space refer to the collection of defunct objects orbiting the Earth. Examples of debris include non-operational satellites, rocket bodies, and fragments generated from explosions, collisions, or faulty payload assembly.

Loading next visibility...
Identifier
41046, 2000-055D
Orbit
SSO
Country
Flag of USUS
Related business
Manufacturer
Unknown
Mission
Spacecraft
Bus & Motor
Unknown
Mass
Unknown
Launch date (UTC)
2000-09-21 (26 years ago)
Launch vehicle
Unknown
Launch site
Air Force Western Test Range (AFWTR)
Object type
Payload
Rocket body
Debris
Shape & HBR
Unknown shape, 0.1 m
Radar Cross Section
Small (<0.1 m²)

Expand to show TLE details & history
Last TLE update: 7 hours ago

TLE from 7 hours ago
0 NOAA 16 DEB
1 41046U 00055D   26126.78279576  .00000760  00000-0  38469-3 0  9999
2 41046  98.6192 192.6277 0014220  82.7236 277.5556 14.18956029539619
Epoch: 2026-05-06T18:47Z
TLE epoch observation values (Epoch: 2026-05-06T18:47:13.553Z)
Latitude
-0.00004°
Longitude
46.18289°
Altitude
830.468 km
Speed
7.438 km/s
True Right ascension
12h 50m 30s
True Declination
0° 00' 00"
Sunlit
Object was in full shadow at epoch
Visualization orbit readout
Latitude
Unknown
Longitude
Unknown
Altitude
Unknown
Speed
Unknown
Apparent Right ascension
Unknown
Apparent Declination
Unknown
Sunlit
N/A
Visualization observer readout
Local Sidereal Time
10:09:44
Azimuth
Unknown
Elevation
Unknown
Doppler factor
Unknown
Orbital elements
Apogee altitude
836.286 km
Perigee altitude
815.797 km
Semi-major axis
7,204.178 km
Eccentricity
0.00142
Inclination
98.6192°
RAAN
192.6277°
Arg. of periapsis
82.7236°
True anomaly
277.39403°
Mean anomaly
277.5556°
Eccentric anomaly
277.47482°
Mean motion
3.54949 °/min
Orbital period
101.42 mins
BSTAR
0.00038469
Loading maneuver chart data...
Computing Atmospheric mass density...
Loading historical data...
Loading historical data...
Loading historical data...
Loading historical data...
Loading historical data...
Loading historical data...
Loading historical data...

Documentation

Showing up to 5 results
|